Fes-Sais, Morocco

4:27 PM WET on February 09, 2016 (GMT +0000)
Saiss

Weather History for GMFF - October, 2013

Change the Weather History Date:

Thursday, October 24, 2013

  Actual Average Record
Temperature  
Mean Temperature 69 °F -  
Max Temperature 84 °F 67 °F 96 °F (2004)
Min Temperature 54 °F 47 °F 48 °F (1998)
Cooling Degree Days 4    
Growing Degree Days 19 (Base 50)    
Moisture  
Dew Point 50 °F    
Average Humidity 52    
Maximum Humidity 82    
Minimum Humidity 16    
Precipitation  
Precipitation 0.00 in 0.11 in - ()
Sea Level Pressure  
Sea Level Pressure 30.05 in    
Wind  
Wind Speed 4 mph ()    
Max Wind Speed 8 mph    
Max Gust Speed 23 mph    
Visibility 5.8 miles    
Events      
Averages and records for this station are not official NWS values.
T = Trace of Precipitation, MM = Missing Value Source: Averaged Metar Reports

Daily Weather History Graph

Daily Weather History Graph

Search for Another Location

Airport or City:

Trip Planner

Search our weather history database for the weather conditions in past years. The results will help you decide how hot, cold, wet, or windy it might be!

Date:

Astronomy

Oct. 24, 2013 Rise Set
Actual Time 7:32 AM WEST 6:35 PM WEST
Civil Twilight 7:06 AM WEST 7:00 PM WEST
Nautical Twilight 6:37 AM WEST 7:30 PM WEST
Astronomical Twilight 6:08 AM WEST 7:59 PM WEST
Moon 10:52 PM WEST (10/24) 12:17 PM WEST (10/24)
Length of Visible Light 11h 53m
Length of Day
11h 03m
Waning Gibbous, 73% of the Moon is Illuminated
Oct 24
Waning Gibbous
Oct 27
Last Quarter
Nov 3
New
Nov 10
First Quarter
Nov 17
Full

Hourly Weather History & Observations

Time (WEST) Temp. Heat Index Dew Point Humidity Pressure Visibility Wind Dir Wind Speed Gust Speed Precip Events Conditions
12:00 AM 59.0 °F - 46.4 °F 63% 30.12 in - SSE 4.6 mph - N/A   Clear
1:00 AM 58 °F - 47 °F 57% 30.11 in 6 mi SSE 4.6 mph - -   Clear
1:00 AM 59.0 °F - 48.2 °F 67% 30.12 in - SSE 4.6 mph - N/A   Clear
3:00 AM 55.4 °F - 44.6 °F 67% 30.09 in - SSE 2.3 mph - N/A   Clear
4:00 AM 55 °F - 45 °F 61% 30.08 in 6 mi SSE 5.8 mph - -   Clear
4:00 AM 55.4 °F - 44.6 °F 67% 30.09 in - SSE 5.8 mph - N/A   Clear
5:00 AM 55.4 °F - 44.6 °F 67% 30.06 in - South 4.6 mph - N/A   Clear
6:00 AM 57.2 °F - 44.6 °F 63% 30.06 in - SSE 6.9 mph - N/A   Clear
7:00 AM 58 °F - 44 °F 49% 30.07 in 6 mi SSE 6.9 mph - -   Clear
7:00 AM 59.0 °F - 44.6 °F 59% 30.09 in - SSE 6.9 mph - N/A   Clear
8:00 AM 59.0 °F - 42.8 °F 55% 30.09 in - South 4.6 mph - N/A   Clear
9:00 AM 69.8 °F - 46.4 °F 43% 30.09 in - South 3.5 mph - N/A   Clear
9:30 AM 78.8 °F - 46.4 °F 32% 29.65 in - Calm Calm - N/A   Clear
10:00 AM 81 °F - 43 °F 16% 30.00 in 6 mi Calm Calm - -   Scattered Clouds
10:00 AM 80.6 °F - 42.8 °F 26% 30.09 in - Calm Calm - N/A   Clear
11:00 AM 77.0 °F - 46.4 °F 34% 30.09 in - North 3.5 mph - N/A   Clear
12:00 PM 80.6 °F - 44.6 °F 28% 30.09 in - North 3.5 mph - N/A   Clear
1:00 PM 83 °F - 46 °F 18% 29.98 in 6 mi NE 2.3 mph - -   Scattered Clouds
1:00 PM 82.4 °F - 44.6 °F 26% 30.09 in - NNE 2.3 mph - N/A   Clear
2:00 PM 82.4 °F - 46.4 °F 28% 30.06 in - NW 5.8 mph - N/A   Clear
3:00 PM 84.2 °F - 51.8 °F 33% 30.06 in - NW 8.1 mph - N/A   Clear
4:00 PM 82 °F - 49 °F 21% 29.95 in 6 mi West 4.6 mph - -   Scattered Clouds
4:00 PM 84.2 °F - 50.0 °F 30% 30.06 in - NW 5.8 mph - N/A   Clear
5:00 PM 84.2 °F - 51.8 °F 33% 30.06 in - Variable 3.5 mph - N/A   Clear
6:00 PM 80.6 °F 80.3 °F 53.6 °F 39% 30.06 in - Variable 4.6 mph - N/A   Clear
7:00 PM 74 °F - 60 °F 52% 30.00 in 6 mi NW 5.8 mph - -   Scattered Clouds
7:00 PM 73.4 °F - 59.0 °F 61% 30.06 in - NW 6.9 mph - N/A   Clear
8:00 PM 69.8 °F - 62.6 °F 78% 30.06 in - WNW 5.8 mph - N/A   Clear
9:00 PM 66.2 °F - 59.0 °F 78% 30.06 in 5.6 mi SSW 6.9 mph - N/A   Unknown
9:30 PM 64.4 °F - 57.2 °F 77% 30.06 in 4.3 mi SW 6.9 mph - N/A   Unknown
10:00 PM 63 °F - 57 °F 76% 30.06 in 6 mi SW 4.6 mph - -  
10:00 PM 62.6 °F - 57.2 °F 82% 30.06 in - SW 5.8 mph - N/A   Clear
10:30 PM 62.6 °F - 55.4 °F 77% 30.06 in - South 5.8 mph - N/A   Clear
11:00 PM 60.8 °F - 53.6 °F 77% 30.06 in - South 6.9 mph - N/A   Clear
11:30 PM 60.8 °F - 55.4 °F 82% 30.06 in - SSE 8.1 mph 23.0 mph N/A   Clear